STARLINK-4712, 53798

Orbit data source: Space-Track

STARLINK-4712, 53798 is a payload satellite owned by SpaceX/Seattle (US) in LEO that was launched on Sun, 11 Sep 2022 UTC via an FALCON 9 launch vehicle from the Air Force Eastern Test Range (AFETR). Payload-class satellites include a variety of spacecraft equipped with specific instruments for various scientific and technological missions. These include communications satellites like Starlink; space stations such as the ISS; scientific satellites like the Hubble; Earth observation satellites from companies like Planet Labs, Umbra, and HawkEye 360; GPS; miniature CubeSats for education and research; and military/defense satellites.

Loading next visibility...
Identifier
53798, 2022-111AB
Orbit
LEO
Country
Flag of USUS
Related business
Manufacturer
SpaceX/Seattle
Mission
Operational Commercial Communications
Bus & Motor
STARLINK, Unknown motor
Mass
305 kg wet, ~290 kg dry
Launch date (UTC)
2022-09-11 (4 years ago)
Launch vehicle
FALCON 9
Launch site
Air Force Eastern Test Range (AFETR)
Object type
Payload
Rocket body
Debris
Shape & HBR
Box + 1 Pan, 10.1 m
Radar Cross Section
13.562 m², Large (>1 m²)

Expand to show TLE details & history
Last TLE update: 12 hours ago

TLE from 12 hours ago
0 STARLINK-4712
1 53798U 22111AB  26197.83335647 -.00014210  00000-0 -44688-3 0  9996
2 53798  53.1600  51.5920 0001288  76.6553  90.2347 15.31708067  5831
Epoch: 2026-07-16T20:00Z
TLE epoch observation values (Epoch: 2026-07-16T20:00:01.999Z)
Latitude
10.43226°
Longitude
-10.96981°
Altitude
470.866 km
Speed
7.633 km/s
True Right ascension
14h 54m 49s
True Declination
10° 22' 07"
Sunlit
Object was in daylight at epoch
Visualization orbit readout
Latitude
Unknown
Longitude
Unknown
Altitude
Unknown
Speed
Unknown
Apparent Right ascension
Unknown
Apparent Declination
Unknown
Sunlit
N/A
Visualization observer readout
Local Sidereal Time
21:01:44
Azimuth
Unknown
Elevation
Unknown
Doppler factor
Unknown
Orbital elements
Apogee altitude
471.855 km
Perigee altitude
470.09 km
Semi-major axis
6,849.11 km
Eccentricity
0.00013
Inclination
53.16°
RAAN
51.592°
Arg. of periapsis
76.6553°
True anomaly
90.24946°
Mean anomaly
90.2347°
Eccentric anomaly
90.24208°
Mean motion
3.82906 °/min
Orbital period
94.02 mins
BSTAR
-0.00044688
Loading maneuver chart data...
Computing Atmospheric mass density...
Loading historical data...
Loading historical data...
Loading historical data...
Loading historical data...
Loading historical data...
Loading historical data...
Loading historical data...

Documentation

Showing up to 5 results
|